{"data":{"norad_id":60106,"intl_designator":"2024-117R","name":"STARLINK-32045","alt_names":[],"object_type":"PAYLOAD","status":"ACTIVE","operator":null,"country":"US","launch_date":"2024-06-23","launch_site_code":"AFETR","launch_vehicle":null,"mission":null,"orbit_class":"UNKNOWN","rcs_meters":null,"size_class":null,"mass_kg":null,"dimensions":null,"purposes":["comms"],"wikipedia_slug":null,"has_3d_model":false,"image_url":null,"decayed_at":null,"tle_current":{"epoch":"2026-05-24T23:12:48.199392Z","epoch_age_seconds":84683,"freshness":"FRESH","line1":"1 60106U 24117R   26144.96722453 -.00000435  00000+0 -25546-5 0  9993","line2":"2 60106  53.1621  42.9122 0001261  90.5291 269.5855 15.30190085108561","mean_motion":15.30190085,"eccentricity":0.0001261,"inclination_deg":53.1621,"raan_deg":42.9122,"arg_perigee_deg":90.5291,"mean_anomaly_deg":269.5855,"bstar":-2.5546e-6,"rev_number":10856,"period_min":94.105955470232,"perigee_km":474.3804625529,"apogee_km":476.10888541107,"semimajor_km":6853.381673982,"source":"CELESTRAK","updated_at":"2026-05-25T13:38:19.163253Z"}}}